Location: Unspecified
(34.4500°N, 0.0000°E)
Time: 23:34:50
(UTC+00:00)

Envisat - Visible Passes

Search period start: 05 March 2021 00:00
Search period end: 15 March 2021 00:00
Orbit: 764 x 766 km, 98.1° (Epoch: 05 March)

Date Brightness Start Highest point End Pass type
(mag) Time Alt. Az. Time Alt. Az. Time Alt. Az.
05 Mar 3.3 05:29:09 10° NNE 05:34:14 72° ESE 05:39:17 10° S visible
05 Mar 6.8 18:22:40 10° WSW 18:24:20 12° W 18:26:01 10° WNW visible
06 Mar 5.0 04:52:54 10° NE 04:57:19 29° E 05:01:42 10° SSE visible
07 Mar 6.2 04:18:19 10° ENE 04:20:12 12° E 04:22:07 10° ESE visible
07 Mar 3.0 05:54:34 10° N 05:59:35 62° WNW 06:04:34 10° SSW visible
08 Mar 3.8 05:17:48 10° NNE 05:22:48 55° E 05:27:45 10° S visible
09 Mar 5.5 04:41:51 10° NE 04:45:49 23° E 04:49:46 10° SSE visible
10 Mar 3.0 05:43:05 10° N 05:48:11 81° WNW 05:53:15 10° SSW visible
11 Mar 4.4 05:06:32 10° NNE 05:11:20 42° E 05:16:07 10° S visible
12 Mar 5.9 04:30:58 10° NE 04:34:19 18° E 04:37:39 10° SE visible
13 Mar 3.2 05:31:40 10° NNE 05:36:46 78° ESE 05:41:50 10° S visible
14 Mar 4.9 04:55:20 10° NE 04:59:52 32° E 05:04:22 10° SSE visible
